Вернуться в каталог

NOAA 16 DEB

АктивенSSO
NORAD 41083·DEBRIS·🇺🇸 United States

Запущен Sep 21, 2000 с Vandenberg Space Force Base

Loading…

Ближайшие Пролёты (ближайшие 24 часа)

TLE

СвежийSource: Space-Track

Эпоха: Sep 14, 2026, 03:44 UTC

1 41083U 00055AS  26257.15621224  .00000174  00000-0  19399-3 0  9997
2 41083  98.9869 140.2008 0203737 313.7231  44.7203 13.75397425541460

Отслеживайте NOAA 16 DEB в реальном времени с AllMySat

Download on the App Store